TimeMST,TemperatureF,Dew PointF,Humidity,Sea Level PressureIn,VisibilityMPH,Wind Direction,Wind SpeedMPH,Gust SpeedMPH,PrecipitationIn,Events,Conditions,WindDirDegrees,DateUTC
12:15 AM,33.8,12.2,41,30.11,10.0,West,4.6,-,N/A,,Clear,260,2013-02-14 07:15:00
12:35 AM,32.0,12.2,44,30.11,10.0,NNW,3.5,-,N/A,,Clear,330,2013-02-14 07:35:00
12:55 AM,33.8,12.2,41,30.11,10.0,Calm,Calm,-,N/A,,Clear,0,2013-02-14 07:55:00
1:15 AM,32.0,12.2,44,30.10,10.0,West,6.9,-,N/A,,Clear,280,2013-02-14 08:15:00
1:35 AM,32.0,12.2,44,30.10,10.0,WNW,8.1,-,N/A,,Clear,290,2013-02-14 08:35:00
1:55 AM,32.0,14.0,48,30.10,10.0,WNW,9.2,-,N/A,,Clear,290,2013-02-14 08:55:00
2:15 AM,33.8,14.0,44,30.10,10.0,West,9.2,-,N/A,,Clear,280,2013-02-14 09:15:00
2:35 AM,32.0,12.2,44,30.10,10.0,Calm,Calm,-,N/A,,Clear,0,2013-02-14 09:35:00
2:55 AM,28.4,12.2,51,30.10,10.0,Calm,Calm,-,N/A,,Clear,0,2013-02-14 09:55:00
3:15 AM,26.6,12.2,55,30.09,10.0,SE,3.5,-,N/A,,Clear,130,2013-02-14 10:15:00
3:35 AM,26.6,12.2,55,30.10,10.0,Calm,Calm,-,N/A,,Clear,0,2013-02-14 10:35:00
3:55 AM,26.6,12.2,55,30.10,10.0,Calm,Calm,-,N/A,,Clear,0,2013-02-14 10:55:00
4:15 AM,26.6,12.2,55,30.10,10.0,Calm,Calm,-,N/A,,Clear,0,2013-02-14 11:15:00
4:35 AM,26.6,12.2,55,30.10,10.0,Calm,Calm,-,N/A,,Clear,0,2013-02-14 11:35:00
4:55 AM,26.6,14.0,59,30.11,10.0,WNW,3.5,-,N/A,,Clear,300,2013-02-14 11:55:00
5:15 AM,23.0,12.2,63,30.11,10.0,Calm,Calm,-,N/A,,Clear,0,2013-02-14 12:15:00
5:35 AM,23.0,12.2,63,30.12,10.0,ESE,3.5,-,N/A,,Clear,110,2013-02-14 12:35:00
5:55 AM,23.0,12.2,63,30.12,10.0,Calm,Calm,-,N/A,,Clear,0,2013-02-14 12:55:00
6:15 AM,23.0,12.2,63,30.12,10.0,Calm,Calm,-,N/A,,Clear,0,2013-02-14 13:15:00
6:35 AM,21.2,12.2,68,30.13,10.0,Calm,Calm,-,N/A,,Clear,0,2013-02-14 13:35:00
6:55 AM,23.0,12.2,63,30.13,10.0,NW,3.5,-,N/A,,Clear,320,2013-02-14 13:55:00
7:15 AM,24.8,14.0,64,30.13,10.0,WNW,4.6,-,N/A,,Clear,290,2013-02-14 14:15:00
7:35 AM,30.2,15.8,55,30.14,10.0,North,3.5,-,N/A,,Clear,10,2013-02-14 14:35:00
7:55 AM,30.2,14.0,51,30.14,10.0,Calm,Calm,-,N/A,,Clear,0,2013-02-14 14:55:00
8:15 AM,32.0,17.6,55,30.14,10.0,Calm,Calm,-,N/A,,Clear,0,2013-02-14 15:15:00
8:35 AM,41.0,19.4,42,30.14,10.0,Calm,Calm,-,N/A,,Clear,0,2013-02-14 15:35:00
8:55 AM,42.8,19.4,39,30.13,10.0,Calm,Calm,-,N/A,,Clear,0,2013-02-14 15:55:00
9:15 AM,44.6,19.4,37,30.13,10.0,Calm,Calm,-,N/A,,Clear,0,2013-02-14 16:15:00
9:35 AM,44.6,21.2,39,30.13,10.0,North,-9999.0,-,N/A,,Clear,0,2013-02-14 16:35:00
9:55 AM,44.6,21.2,39,30.13,10.0,Calm,Calm,-,N/A,,Clear,0,2013-02-14 16:55:00
10:15 AM,46.4,19.4,34,30.13,10.0,Calm,Calm,-,N/A,,Clear,0,2013-02-14 17:15:00
10:35 AM,50.0,21.2,32,30.13,10.0,WNW,3.5,-,N/A,,Clear,300,2013-02-14 17:35:00
10:55 AM,50.0,19.4,30,30.13,10.0,NW,3.5,-,N/A,,Clear,310,2013-02-14 17:55:00
11:15 AM,51.8,19.4,28,30.12,10.0,WNW,5.8,-,N/A,,Clear,290,2013-02-14 18:15:00
11:35 AM,53.6,19.4,26,30.12,10.0,West,4.6,-,N/A,,Clear,280,2013-02-14 18:35:00
11:55 AM,53.6,19.4,26,30.12,10.0,NW,5.8,-,N/A,,Clear,310,2013-02-14 18:55:00
12:15 PM,55.4,19.4,25,30.11,10.0,WNW,4.6,-,N/A,,Clear,290,2013-02-14 19:15:00
12:35 PM,55.4,19.4,25,30.10,10.0,WNW,5.8,-,N/A,,Clear,300,2013-02-14 19:35:00
12:55 PM,55.4,19.4,25,30.09,10.0,West,4.6,-,N/A,,Clear,280,2013-02-14 19:55:00
1:15 PM,57.2,19.4,23,30.09,10.0,WNW,8.1,-,N/A,,Clear,300,2013-02-14 20:15:00
1:35 PM,59.0,17.6,20,30.10,10.0,West,10.4,16.1,N/A,,Clear,270,2013-02-14 20:35:00
1:55 PM,59.0,17.6,20,30.08,10.0,West,9.2,19.6,N/A,,Clear,260,2013-02-14 20:55:00
2:15 PM,60.8,17.6,19,30.06,10.0,West,10.4,19.6,N/A,,Clear,270,2013-02-14 21:15:00
2:35 PM,60.8,17.6,19,30.04,10.0,WNW,11.5,16.1,N/A,,Clear,300,2013-02-14 21:35:00
2:55 PM,60.8,17.6,19,30.04,10.0,NW,13.8,-,N/A,,Clear,310,2013-02-14 21:55:00
3:15 PM,60.8,17.6,19,30.04,10.0,West,11.5,17.3,N/A,,Clear,280,2013-02-14 22:15:00
3:35 PM,60.8,14.0,16,30.04,10.0,WNW,13.8,19.6,N/A,,Clear,290,2013-02-14 22:35:00
3:55 PM,60.8,12.2,15,30.04,10.0,NW,13.8,18.4,N/A,,Clear,310,2013-02-14 22:55:00
4:15 PM,60.8,17.6,19,30.04,10.0,NW,12.7,20.7,N/A,,Clear,320,2013-02-14 23:15:00
4:35 PM,60.8,15.8,17,30.04,10.0,NW,15.0,19.6,N/A,,Clear,310,2013-02-14 23:35:00
4:55 PM,59.0,14.0,17,30.04,10.0,NW,11.5,-,N/A,,Clear,310,2013-02-14 23:55:00
5:15 PM,59.0,14.0,17,30.04,10.0,WNW,13.8,17.3,N/A,,Clear,300,2013-02-15 00:15:00
5:35 PM,57.2,14.0,18,30.04,10.0,WNW,10.4,-,N/A,,Clear,300,2013-02-15 00:35:00
5:55 PM,55.4,15.8,21,30.05,10.0,WNW,8.1,-,N/A,,Clear,290,2013-02-15 00:55:00
6:15 PM,51.8,14.0,22,30.06,10.0,WNW,8.1,-,N/A,,Clear,300,2013-02-15 01:15:00
6:35 PM,51.8,15.8,24,30.06,10.0,WNW,8.1,-,N/A,,Clear,300,2013-02-15 01:35:00
6:55 PM,50.0,15.8,26,30.07,10.0,NW,5.8,-,N/A,,Clear,320,2013-02-15 01:55:00
7:15 PM,44.6,15.8,31,30.06,10.0,West,6.9,-,N/A,,Clear,280,2013-02-15 02:15:00
7:35 PM,42.8,15.8,34,30.06,10.0,WNW,8.1,-,N/A,,Clear,290,2013-02-15 02:35:00
7:55 PM,42.8,17.6,36,30.07,10.0,NW,3.5,-,N/A,,Clear,320,2013-02-15 02:55:00
8:15 PM,41.0,15.8,36,30.08,10.0,WNW,6.9,-,N/A,,Clear,300,2013-02-15 03:15:00
8:35 PM,41.0,17.6,39,30.08,10.0,NW,5.8,-,N/A,,Clear,310,2013-02-15 03:35:00
8:55 PM,39.2,17.6,42,30.10,10.0,Calm,Calm,-,N/A,,Clear,0,2013-02-15 03:55:00
9:15 PM,39.2,17.6,42,30.11,10.0,Calm,Calm,-,N/A,,Clear,0,2013-02-15 04:15:00
9:35 PM,42.8,19.4,39,30.11,10.0,Calm,Calm,-,N/A,,Clear,0,2013-02-15 04:35:00
9:55 PM,41.0,19.4,42,30.12,10.0,Calm,Calm,-,N/A,,Clear,0,2013-02-15 04:55:00
10:15 PM,41.0,17.6,39,30.13,10.0,West,3.5,-,N/A,,Clear,280,2013-02-15 05:15:00
10:35 PM,39.2,19.4,45,30.13,10.0,Calm,Calm,-,N/A,,Clear,0,2013-02-15 05:35:00
10:55 PM,37.4,19.4,48,30.14,10.0,West,5.8,-,N/A,,Clear,270,2013-02-15 05:55:00
11:15 PM,37.4,19.4,48,30.14,10.0,SSW,4.6,-,N/A,,Clear,200,2013-02-15 06:15:00
11:35 PM,37.4,19.4,48,30.16,10.0,Calm,Calm,-,N/A,,Clear,0,2013-02-15 06:35:00
11:55 PM,35.6,19.4,52,30.16,10.0,West,4.6,-,N/A,,Clear,260,2013-02-15 06:55:00